Time,TemperatureF,DewpointF,PressureIn,WindDirection,WindDirectionDegrees,WindSpeedMPH,WindSpeedGustMPH,Humidity,HourlyPrecipIn,Conditions,Clouds,dailyrainin,SoftwareType,DateUTC
2013-01-17 00:05:00,41.4,41.1,29.96,SSW,211,0.0,4.0,99,0.00,,,0.00,Wunderground v.1.15,2013-01-17 05:05:00,
2013-01-17 00:10:00,41.4,41.1,29.96,SSW,211,0.0,4.0,99,0.00,,,0.00,Wunderground v.1.15,2013-01-17 05:10:00,
2013-01-17 00:15:00,41.4,41.1,29.97,SSW,212,0.0,4.0,99,0.00,,,0.00,Wunderground v.1.15,2013-01-17 05:15:00,
2013-01-17 00:25:00,41.3,41.0,29.97,SSW,212,0.0,4.0,99,0.00,,,0.00,Wunderground v.1.15,2013-01-17 05:25:00,
2013-01-17 00:30:00,41.4,41.1,29.98,SSW,211,0.0,4.0,99,0.00,,,0.00,Wunderground v.1.15,2013-01-17 05:30:00,
2013-01-17 00:35:00,41.4,41.1,29.98,SSW,211,0.0,4.0,99,0.00,,,0.00,Wunderground v.1.15,2013-01-17 05:35:00,
2013-01-17 00:40:00,41.5,41.2,29.99,SSW,212,0.0,4.0,99,0.00,,,0.00,Wunderground v.1.15,2013-01-17 05:40:00,
2013-01-17 00:45:00,41.3,41.0,29.99,SSW,211,0.0,4.0,99,0.00,,,0.00,Wunderground v.1.15,2013-01-17 05:45:00,
2013-01-17 00:55:00,41.3,41.0,29.98,SSW,212,0.0,4.0,99,0.00,,,0.00,Wunderground v.1.15,2013-01-17 05:55:00,
2013-01-17 01:00:00,41.3,41.0,29.99,SSW,211,0.0,4.0,99,0.00,,,0.00,Wunderground v.1.15,2013-01-17 06:00:00,
2013-01-17 01:05:00,41.3,41.0,29.98,SSW,212,0.0,4.0,99,0.00,,,0.00,Wunderground v.1.15,2013-01-17 06:05:00,
2013-01-17 01:10:00,41.2,40.9,29.98,SSW,211,0.0,4.0,99,0.00,,,0.00,Wunderground v.1.15,2013-01-17 06:10:00,
2013-01-17 01:20:00,41.2,40.9,29.98,SSW,212,0.0,4.0,99,0.00,,,0.00,Wunderground v.1.15,2013-01-17 06:20:00,
2013-01-17 01:25:00,41.2,40.9,29.99,SSW,211,0.0,4.0,99,0.00,,,0.01,Wunderground v.1.15,2013-01-17 06:25:00,
2013-01-17 01:30:00,41.1,40.8,29.99,SSW,212,0.0,4.0,99,0.00,,,0.01,Wunderground v.1.15,2013-01-17 06:30:00,
2013-01-17 01:35:00,41.1,40.8,30.00,SSW,212,0.0,4.0,99,0.00,,,0.01,Wunderground v.1.15,2013-01-17 06:35:00,
2013-01-17 01:45:00,41.5,41.5,29.99,SSW,212,0.0,4.0,100,0.00,,,0.01,Wunderground v.1.15,2013-01-17 06:45:00,
2013-01-17 01:50:00,41.4,41.1,29.99,SSW,212,0.0,4.0,99,0.00,,,0.01,Wunderground v.1.15,2013-01-17 06:50:00,
2013-01-17 01:55:00,41.4,41.1,30.00,SSW,211,0.0,4.0,99,0.00,,,0.01,Wunderground v.1.15,2013-01-17 06:55:00,
2013-01-17 02:00:00,41.3,41.0,30.00,SSW,212,0.0,4.0,99,0.00,,,0.01,Wunderground v.1.15,2013-01-17 07:00:00,
2013-01-17 02:10:00,41.4,41.4,30.00,SSW,211,0.0,4.0,100,0.00,,,0.01,Wunderground v.1.15,2013-01-17 07:10:00,
2013-01-17 02:15:00,41.5,41.5,30.01,SSW,211,0.0,4.0,100,0.00,,,0.01,Wunderground v.1.15,2013-01-17 07:15:00,
2013-01-17 02:20:00,41.5,41.5,30.00,SSW,211,0.0,4.0,100,0.00,,,0.01,Wunderground v.1.15,2013-01-17 07:20:00,
2013-01-17 02:25:00,41.5,41.5,30.00,SSW,211,1.0,4.0,100,0.00,,,0.01,Wunderground v.1.15,2013-01-17 07:25:00,
2013-01-17 02:30:00,41.5,41.5,30.01,SSW,212,1.0,1.0,100,0.00,,,0.01,Wunderground v.1.15,2013-01-17 07:30:00,
2013-01-17 02:40:00,41.5,41.5,30.00,SSW,212,2.0,4.0,100,0.00,,,0.01,Wunderground v.1.15,2013-01-17 07:40:00,
2013-01-17 02:45:00,41.4,41.4,30.00,SSW,212,2.0,4.0,100,0.00,,,0.01,Wunderground v.1.15,2013-01-17 07:45:00,
2013-01-17 02:55:00,41.4,41.4,30.00,SSW,212,0.0,4.0,100,0.00,,,0.01,Wunderground v.1.15,2013-01-17 07:55:00,
2013-01-17 03:00:00,41.4,41.4,30.00,SSW,212,0.0,4.0,100,0.00,,,0.01,Wunderground v.1.15,2013-01-17 08:00:00,
2013-01-17 03:05:00,41.4,41.4,29.99,SSW,211,0.0,4.0,100,0.00,,,0.01,Wunderground v.1.15,2013-01-17 08:05:00,
2013-01-17 03:10:00,41.4,41.4,29.98,SSW,212,0.0,4.0,100,0.00,,,0.01,Wunderground v.1.15,2013-01-17 08:10:00,
2013-01-17 03:20:00,41.4,41.4,29.99,SSW,211,0.0,4.0,100,0.00,,,0.01,Wunderground v.1.15,2013-01-17 08:20:00,
2013-01-17 03:25:00,41.4,41.4,29.98,SSW,212,0.0,4.0,100,0.00,,,0.01,Wunderground v.1.15,2013-01-17 08:25:00,
2013-01-17 03:30:00,41.4,41.4,29.98,SSW,211,0.0,4.0,100,0.00,,,0.01,Wunderground v.1.15,2013-01-17 08:30:00,
2013-01-17 03:35:00,41.4,41.4,29.99,SSW,212,0.0,4.0,100,0.00,,,0.01,Wunderground v.1.15,2013-01-17 08:35:00,
2013-01-17 03:40:00,41.4,41.4,29.98,SSW,212,0.0,4.0,100,0.00,,,0.01,Wunderground v.1.15,2013-01-17 08:40:00,
2013-01-17 03:50:00,41.4,41.4,30.00,SSW,211,0.0,4.0,100,0.00,,,0.01,Wunderground v.1.15,2013-01-17 08:50:00,
2013-01-17 03:55:00,41.5,41.5,29.99,SSW,212,0.0,4.0,100,0.00,,,0.01,Wunderground v.1.15,2013-01-17 08:55:00,
2013-01-17 04:00:00,41.5,41.5,29.99,SSW,211,0.0,4.0,100,0.00,,,0.01,Wunderground v.1.15,2013-01-17 09:00:00,
2013-01-17 04:05:00,41.5,41.5,29.99,SSW,212,0.0,4.0,100,0.00,,,0.01,Wunderground v.1.15,2013-01-17 09:05:00,
2013-01-17 04:10:00,41.5,41.5,29.99,SSW,211,0.0,4.0,100,0.00,,,0.01,Wunderground v.1.15,2013-01-17 09:10:00,
2013-01-17 04:20:00,41.5,41.5,30.00,SSW,212,1.0,4.0,100,0.00,,,0.01,Wunderground v.1.15,2013-01-17 09:20:00,
2013-01-17 04:25:00,41.5,41.5,29.99,SSW,211,0.0,4.0,100,0.00,,,0.01,Wunderground v.1.15,2013-01-17 09:25:00,
2013-01-17 04:30:00,41.5,41.5,30.00,SSW,211,0.0,4.0,100,0.00,,,0.01,Wunderground v.1.15,2013-01-17 09:30:00,
2013-01-17 04:35:00,41.5,41.5,29.99,SSW,212,0.0,4.0,100,0.00,,,0.01,Wunderground v.1.15,2013-01-17 09:35:00,
2013-01-17 04:45:00,41.5,41.5,30.00,SSW,212,0.0,4.0,100,0.00,,,0.01,Wunderground v.1.15,2013-01-17 09:45:00,
2013-01-17 04:50:00,41.5,41.5,30.00,SSW,212,0.0,4.0,100,0.00,,,0.01,Wunderground v.1.15,2013-01-17 09:50:00,
2013-01-17 04:55:00,41.5,41.5,30.00,SSW,211,0.0,4.0,100,0.00,,,0.01,Wunderground v.1.15,2013-01-17 09:55:00,
2013-01-17 05:00:00,41.5,41.5,30.01,SSW,212,0.0,4.0,100,0.00,,,0.01,Wunderground v.1.15,2013-01-17 10:00:00,
2013-01-17 05:10:00,41.5,41.5,30.02,SSW,212,0.0,4.0,100,0.00,,,0.01,Wunderground v.1.15,2013-01-17 10:10:00,
2013-01-17 05:15:00,41.5,41.5,30.01,SSW,211,0.0,4.0,100,0.00,,,0.01,Wunderground v.1.15,2013-01-17 10:15:00,
2013-01-17 05:20:00,41.5,41.5,30.01,SSW,212,0.0,4.0,100,0.00,,,0.01,Wunderground v.1.15,2013-01-17 10:20:00,
2013-01-17 05:25:00,41.5,41.5,30.01,SSW,211,0.0,4.0,100,0.00,,,0.01,Wunderground v.1.15,2013-01-17 10:25:00,
2013-01-17 05:35:00,41.6,41.3,30.01,NNW,338,1.0,4.0,99,0.00,,,0.01,Wunderground v.1.15,2013-01-17 10:35:00,
2013-01-17 05:40:00,41.7,41.2,30.00,NNW,337,1.0,1.0,98,0.00,,,0.01,Wunderground v.1.15,2013-01-17 10:40:00,
2013-01-17 05:45:00,41.9,41.1,30.01,NNW,338,0.0,4.0,97,0.00,,,0.01,Wunderground v.1.15,2013-01-17 10:45:00,
2013-01-17 05:50:00,41.9,41.1,30.00,NNW,338,0.0,4.0,97,0.00,,,0.01,Wunderground v.1.15,2013-01-17 10:50:00,
2013-01-17 05:55:00,42.0,40.9,30.02,NNW,338,0.0,4.0,96,0.00,,,0.01,Wunderground v.1.15,2013-01-17 10:55:00,
2013-01-17 06:05:00,41.9,40.8,30.01,NNW,337,0.0,4.0,96,0.00,,,0.01,Wunderground v.1.15,2013-01-17 11:05:00,
2013-01-17 06:10:00,41.9,40.6,30.02,NNW,337,0.0,4.0,95,0.00,,,0.01,Wunderground v.1.15,2013-01-17 11:10:00,
2013-01-17 06:15:00,41.9,40.6,30.01,NNW,338,0.0,4.0,95,0.00,,,0.01,Wunderground v.1.15,2013-01-17 11:15:00,
2013-01-17 06:25:00,42.1,40.5,30.01,NNW,337,0.0,4.0,94,0.00,,,0.01,Wunderground v.1.15,2013-01-17 11:25:00,
2013-01-17 06:30:00,42.3,39.9,30.03,NW,313,0.0,4.0,91,0.00,,,0.01,Wunderground v.1.15,2013-01-17 11:30:00,
2013-01-17 06:35:00,42.5,39.5,30.03,NW,317,1.0,4.0,89,0.00,,,0.01,Wunderground v.1.15,2013-01-17 11:35:00,
2013-01-17 06:40:00,42.7,39.1,30.03,NW,317,1.0,1.0,87,0.00,,,0.01,Wunderground v.1.15,2013-01-17 11:40:00,
2013-01-17 06:45:00,42.7,38.5,30.03,NW,323,1.0,4.0,85,0.00,,,0.01,Wunderground v.1.15,2013-01-17 11:45:00,
2013-01-17 06:55:00,42.9,37.8,30.04,NW,323,0.0,4.0,82,0.00,,,0.01,Wunderground v.1.15,2013-01-17 11:55:00,
2013-01-17 07:00:00,42.9,37.5,30.05,NW,323,1.0,1.0,81,0.00,,,0.01,Wunderground v.1.15,2013-01-17 12:00:00,
2013-01-17 07:05:00,42.9,37.5,30.04,NW,323,1.0,4.0,81,0.00,,,0.01,Wunderground v.1.15,2013-01-17 12:05:00,
2013-01-17 07:10:00,42.9,37.5,30.04,NW,323,1.0,1.0,81,0.00,,,0.01,Wunderground v.1.15,2013-01-17 12:10:00,
2013-01-17 07:15:00,42.8,37.1,30.04,NW,323,1.0,4.0,80,0.00,,,0.01,Wunderground v.1.15,2013-01-17 12:15:00,
2013-01-17 07:25:00,42.9,34.8,30.04,WNW,300,2.0,4.0,73,0.00,,,0.01,Wunderground v.1.15,2013-01-17 12:25:00,
2013-01-17 07:30:00,42.9,34.8,30.05,NW,310,1.0,1.0,73,0.00,,,0.01,Wunderground v.1.15,2013-01-17 12:30:00,
2013-01-17 07:35:00,42.9,34.8,30.05,NW,313,0.0,2.0,73,0.00,,,0.01,Wunderground v.1.15,2013-01-17 12:35:00,
2013-01-17 07:45:00,42.8,34.7,30.05,North,355,1.0,4.0,73,0.00,,,0.01,Wunderground v.1.15,2013-01-17 12:45:00,
2013-01-17 07:50:00,42.7,33.9,30.06,WNW,302,1.0,1.0,71,0.00,,,0.01,Wunderground v.1.15,2013-01-17 12:50:00,
2013-01-17 07:55:00,42.7,32.9,30.06,WNW,286,2.0,2.0,68,0.00,,,0.01,Wunderground v.1.15,2013-01-17 12:55:00,
2013-01-17 08:00:00,42.7,33.2,30.06,WNW,287,1.0,1.0,69,0.00,,,0.01,Wunderground v.1.15,2013-01-17 13:00:00,
2013-01-17 08:10:00,42.7,33.2,30.08,NW,315,1.0,1.0,69,0.00,,,0.01,Wunderground v.1.15,2013-01-17 13:10:00,
2013-01-17 08:15:00,42.6,32.4,30.08,NNW,346,2.0,2.0,67,0.00,,,0.01,Wunderground v.1.15,2013-01-17 13:15:00,
2013-01-17 08:20:00,42.6,33.1,30.07,NNW,347,1.0,1.0,69,0.00,,,0.01,Wunderground v.1.15,2013-01-17 13:20:00,
2013-01-17 08:25:00,42.5,33.0,30.09,NNW,348,1.0,3.0,69,0.00,,,0.01,Wunderground v.1.15,2013-01-17 13:25:00,
2013-01-17 08:35:00,42.5,32.7,30.10,NNW,331,2.0,5.0,68,0.00,,,0.01,Wunderground v.1.15,2013-01-17 13:35:00,
2013-01-17 08:40:00,42.4,32.6,30.10,NNW,333,2.0,4.0,68,0.00,,,0.01,Wunderground v.1.15,2013-01-17 13:40:00,
2013-01-17 08:45:00,42.4,32.2,30.09,NNW,340,2.0,4.0,67,0.00,,,0.01,Wunderground v.1.15,2013-01-17 13:45:00,
2013-01-17 08:50:00,42.4,32.6,30.10,North,351,2.0,2.0,68,0.00,,,0.01,Wunderground v.1.15,2013-01-17 13:50:00,
2013-01-17 08:55:00,42.3,32.5,30.10,NNW,333,1.0,4.0,68,0.00,,,0.01,Wunderground v.1.15,2013-01-17 13:55:00,
2013-01-17 09:05:00,42.3,32.8,30.10,NNW,334,2.0,4.0,69,0.00,,,0.01,Wunderground v.1.15,2013-01-17 14:05:00,
2013-01-17 09:10:00,42.4,32.9,30.10,NNW,336,1.0,1.0,69,0.00,,,0.01,Wunderground v.1.15,2013-01-17 14:10:00,
2013-01-17 09:15:00,42.4,33.3,30.10,NW,325,1.0,4.0,70,0.00,,,0.01,Wunderground v.1.15,2013-01-17 14:15:00,
2013-01-17 09:20:00,42.4,32.6,30.10,NW,326,1.0,1.0,68,0.00,,,0.01,Wunderground v.1.15,2013-01-17 14:20:00,
2013-01-17 09:30:00,42.4,32.9,30.12,NNW,327,0.0,4.0,69,0.00,,,0.01,Wunderground v.1.15,2013-01-17 14:30:00,
2013-01-17 09:35:00,42.4,32.2,30.11,NW,321,1.0,4.0,67,0.00,,,0.01,Wunderground v.1.15,2013-01-17 14:35:00,
2013-01-17 09:40:00,42.4,32.9,30.12,NW,321,1.0,1.0,69,0.00,,,0.01,Wunderground v.1.15,2013-01-17 14:40:00,
2013-01-17 09:45:00,42.4,31.5,30.12,NNW,329,1.0,4.0,65,0.00,,,0.01,Wunderground v.1.15,2013-01-17 14:45:00,
2013-01-17 09:55:00,42.5,32.3,30.10,NW,323,1.0,6.0,67,0.00,,,0.01,Wunderground v.1.15,2013-01-17 14:55:00,
2013-01-17 10:00:00,42.4,32.2,30.12,WNW,290,2.0,4.0,67,0.00,,,0.01,Wunderground v.1.15,2013-01-17 15:00:00,
2013-01-17 10:05:00,42.3,32.5,30.11,North,349,3.0,6.0,68,0.00,,,0.01,Wunderground v.1.15,2013-01-17 15:05:00,
2013-01-17 10:10:00,42.2,32.4,30.10,NNW,330,2.0,2.0,68,0.00,,,0.01,Wunderground v.1.15,2013-01-17 15:10:00,
2013-01-17 10:15:00,42.2,32.0,30.11,WNW,297,3.0,3.0,67,0.00,,,0.01,Wunderground v.1.15,2013-01-17 15:15:00,
2013-01-17 10:25:00,42.3,32.8,30.11,NNW,335,3.0,5.0,69,0.00,,,0.01,Wunderground v.1.15,2013-01-17 15:25:00,
2013-01-17 10:30:00,42.4,32.6,30.12,WNW,302,2.0,5.0,68,0.00,,,0.01,Wunderground v.1.15,2013-01-17 15:30:00,
2013-01-17 10:35:00,42.4,32.9,30.11,NW,321,3.0,5.0,69,0.00,,,0.01,Wunderground v.1.15,2013-01-17 15:35:00,
2013-01-17 10:40:00,42.4,32.9,30.11,West,280,3.0,3.0,69,0.00,,,0.01,Wunderground v.1.15,2013-01-17 15:40:00,
2013-01-17 10:45:00,42.4,32.9,30.10,WNW,294,3.0,4.0,69,0.00,,,0.01,Wunderground v.1.15,2013-01-17 15:45:00,
2013-01-17 10:55:00,42.4,32.9,30.11,NW,310,2.0,4.0,69,0.00,,,0.01,Wunderground v.1.15,2013-01-17 15:55:00,
2013-01-17 11:00:00,42.5,33.4,30.11,NW,304,1.0,1.0,70,0.00,,,0.01,Wunderground v.1.15,2013-01-17 16:00:00,
2013-01-17 11:05:00,42.5,33.0,30.11,NNW,332,2.0,6.0,69,0.00,,,0.02,Wunderground v.1.15,2013-01-17 16:05:00,
2013-01-17 11:10:00,42.4,33.3,30.12,NW,306,4.0,4.0,70,0.00,,,0.02,Wunderground v.1.15,2013-01-17 16:10:00,
2013-01-17 11:20:00,42.5,33.8,30.11,NW,308,2.0,2.0,71,0.00,,,0.02,Wunderground v.1.15,2013-01-17 16:20:00,
2013-01-17 11:25:00,42.5,33.4,30.11,NNW,329,2.0,4.0,70,0.00,,,0.02,Wunderground v.1.15,2013-01-17 16:25:00,
2013-01-17 11:30:00,42.6,33.9,30.10,WNW,288,2.0,2.0,71,0.00,,,0.02,Wunderground v.1.15,2013-01-17 16:30:00,
2013-01-17 11:35:00,42.5,33.4,30.11,NW,324,2.0,9.0,70,0.00,,,0.02,Wunderground v.1.15,2013-01-17 16:35:00,
2013-01-17 11:45:00,42.5,33.4,30.10,NNW,340,3.0,4.0,70,0.00,,,0.02,Wunderground v.1.15,2013-01-17 16:45:00,
2013-01-17 11:50:00,42.3,33.6,30.09,WNW,298,3.0,7.0,71,0.00,,,0.02,Wunderground v.1.15,2013-01-17 16:50:00,
2013-01-17 11:55:00,42.2,33.5,30.09,NW,304,3.0,7.0,71,0.00,,,0.02,Wunderground v.1.15,2013-01-17 16:55:00,
2013-01-17 12:00:00,42.2,33.5,30.09,North,360,2.0,4.0,71,0.00,,,0.02,Wunderground v.1.15,2013-01-17 17:00:00,
2013-01-17 12:05:00,42.2,33.5,30.08,North,5,3.0,4.0,71,0.00,,,0.02,Wunderground v.1.15,2013-01-17 17:05:00,
2013-01-17 12:15:00,42.2,33.8,30.08,NW,312,3.0,4.0,72,0.00,,,0.02,Wunderground v.1.15,2013-01-17 17:15:00,
2013-01-17 12:20:00,42.3,33.9,30.08,NW,306,3.0,3.0,72,0.00,,,0.02,Wunderground v.1.15,2013-01-17 17:20:00,
2013-01-17 12:25:00,42.2,33.8,30.08,North,355,3.0,4.0,72,0.00,,,0.02,Wunderground v.1.15,2013-01-17 17:25:00,
2013-01-17 12:30:00,42.3,33.6,30.07,NNW,335,3.0,3.0,71,0.00,,,0.02,Wunderground v.1.15,2013-01-17 17:30:00,
2013-01-17 12:35:00,42.3,33.9,30.07,NW,314,3.0,4.0,72,0.00,,,0.02,Wunderground v.1.15,2013-01-17 17:35:00,
2013-01-17 12:45:00,42.2,33.5,30.09,NNW,333,3.0,5.0,71,0.00,,,0.02,Wunderground v.1.15,2013-01-17 17:45:00,
2013-01-17 12:50:00,42.2,33.8,30.07,NNW,336,2.0,4.0,72,0.00,,,0.02,Wunderground v.1.15,2013-01-17 17:50:00,
2013-01-17 12:55:00,42.2,33.8,30.07,NNW,348,2.0,4.0,72,0.00,,,0.02,Wunderground v.1.15,2013-01-17 17:55:00,
2013-01-17 13:00:00,42.2,33.8,30.06,NNW,332,2.0,4.0,72,0.00,,,0.02,Wunderground v.1.15,2013-01-17 18:00:00,
2013-01-17 13:05:00,42.1,34.1,30.05,North,360,3.0,4.0,73,0.00,,,0.02,Wunderground v.1.15,2013-01-17 18:05:00,
2013-01-17 13:15:00,42.1,33.7,30.06,NNW,331,2.0,4.0,72,0.00,,,0.02,Wunderground v.1.15,2013-01-17 18:15:00,
2013-01-17 13:20:00,42.1,34.4,30.06,North,360,2.0,2.0,74,0.00,,,0.02,Wunderground v.1.15,2013-01-17 18:20:00,
2013-01-17 13:25:00,42.1,33.7,30.06,North,360,2.0,4.0,72,0.00,,,0.02,Wunderground v.1.15,2013-01-17 18:25:00,
2013-01-17 13:30:00,42.1,34.4,30.06,NNW,346,2.0,2.0,74,0.00,,,0.02,Wunderground v.1.15,2013-01-17 18:30:00,
2013-01-17 13:40:00,42.3,33.9,30.07,NNW,340,1.0,4.0,72,0.00,,,0.02,Wunderground v.1.15,2013-01-17 18:40:00,
2013-01-17 13:45:00,42.2,34.2,30.07,NNW,344,2.0,4.0,73,0.00,,,0.02,Wunderground v.1.15,2013-01-17 18:45:00,
2013-01-17 13:50:00,42.1,34.1,30.07,North,5,3.0,5.0,73,0.00,,,0.02,Wunderground v.1.15,2013-01-17 18:50:00,
2013-01-17 13:55:00,42.0,34.0,30.08,NW,318,4.0,5.0,73,0.00,,,0.02,Wunderground v.1.15,2013-01-17 18:55:00,
2013-01-17 14:00:00,42.0,34.0,30.07,NW,319,3.0,3.0,73,0.00,,,0.02,Wunderground v.1.15,2013-01-17 19:00:00,
2013-01-17 14:10:00,41.9,34.2,30.06,NNW,346,2.0,2.0,74,0.00,,,0.02,Wunderground v.1.15,2013-01-17 19:10:00,
2013-01-17 14:15:00,41.9,34.2,30.06,NNW,336,2.0,3.0,74,0.00,,,0.02,Wunderground v.1.15,2013-01-17 19:15:00,
2013-01-17 14:20:00,41.9,34.2,30.05,NNW,338,1.0,1.0,74,0.00,,,0.02,Wunderground v.1.15,2013-01-17 19:20:00,
2013-01-17 14:25:00,41.8,34.1,30.05,NNW,341,1.0,4.0,74,0.00,,,0.02,Wunderground v.1.15,2013-01-17 19:25:00,
2013-01-17 14:35:00,41.8,34.1,30.06,NNW,342,0.0,4.0,74,0.00,,,0.02,Wunderground v.1.15,2013-01-17 19:35:00,
2013-01-17 14:40:00,41.8,34.8,30.06,NNW,342,0.0,4.0,76,0.00,,,0.02,Wunderground v.1.15,2013-01-17 19:40:00,
2013-01-17 14:45:00,42.0,34.6,30.06,NNW,341,0.0,4.0,75,0.00,,,0.02,Wunderground v.1.15,2013-01-17 19:45:00,
2013-01-17 14:55:00,42.0,34.3,30.07,NNW,342,0.0,4.0,74,0.00,,,0.02,Wunderground v.1.15,2013-01-17 19:55:00,
2013-01-17 15:00:00,41.9,34.6,30.07,NNW,341,0.0,4.0,75,0.00,,,0.02,Wunderground v.1.15,2013-01-17 20:00:00,
2013-01-17 15:05:00,42.0,34.6,30.07,NNW,342,0.0,4.0,75,0.00,,,0.02,Wunderground v.1.15,2013-01-17 20:05:00,
2013-01-17 15:10:00,41.8,34.1,30.07,North,350,1.0,1.0,74,0.00,,,0.02,Wunderground v.1.15,2013-01-17 20:10:00,
2013-01-17 15:20:00,41.7,34.0,30.08,North,350,0.0,4.0,74,0.00,,,0.02,Wunderground v.1.15,2013-01-17 20:20:00,
2013-01-17 15:25:00,41.7,34.4,30.08,North,350,0.0,4.0,75,0.00,,,0.02,Wunderground v.1.15,2013-01-17 20:25:00,
2013-01-17 15:30:00,41.7,34.7,30.07,North,350,0.0,4.0,76,0.00,,,0.02,Wunderground v.1.15,2013-01-17 20:30:00,
2013-01-17 15:35:00,41.8,34.1,30.08,North,350,0.0,4.0,74,0.00,,,0.02,Wunderground v.1.15,2013-01-17 20:35:00,
2013-01-17 15:40:00,41.6,33.6,30.08,North,350,0.0,4.0,73,0.00,,,0.02,Wunderground v.1.15,2013-01-17 20:40:00,
2013-01-17 15:50:00,41.5,34.2,30.08,North,350,0.0,4.0,75,0.00,,,0.02,Wunderground v.1.15,2013-01-17 20:50:00,
2013-01-17 15:55:00,41.5,34.2,30.08,North,350,0.0,4.0,75,0.00,,,0.02,Wunderground v.1.15,2013-01-17 20:55:00,
2013-01-17 16:00:00,41.5,34.2,30.08,North,349,0.0,4.0,75,0.00,,,0.02,Wunderground v.1.15,2013-01-17 21:00:00,
2013-01-17 16:05:00,41.4,33.7,30.08,North,11,1.0,4.0,74,0.00,,,0.02,Wunderground v.1.15,2013-01-17 21:05:00,
2013-01-17 16:15:00,41.3,34.6,30.10,NNW,329,1.0,4.0,77,0.00,,,0.02,Wunderground v.1.15,2013-01-17 21:15:00,
2013-01-17 16:20:00,41.4,34.4,30.09,NNW,333,0.0,4.0,76,0.00,,,0.02,Wunderground v.1.15,2013-01-17 21:20:00,
2013-01-17 16:25:00,41.3,34.3,30.09,NE,49,0.0,4.0,76,0.00,,,0.02,Wunderground v.1.15,2013-01-17 21:25:00,
2013-01-17 16:30:00,41.2,33.5,30.09,NE,49,0.0,4.0,74,0.00,,,0.02,Wunderground v.1.15,2013-01-17 21:30:00,
2013-01-17 16:40:00,41.0,34.0,30.09,NE,44,0.0,4.0,76,0.00,,,0.02,Wunderground v.1.15,2013-01-17 21:40:00,
2013-01-17 16:45:00,41.0,34.3,30.09,NE,44,0.0,4.0,77,0.00,,,0.02,Wunderground v.1.15,2013-01-17 21:45:00,
2013-01-17 16:50:00,41.1,34.8,30.10,NE,44,0.0,4.0,78,0.00,,,0.02,Wunderground v.1.15,2013-01-17 21:50:00,
2013-01-17 16:55:00,41.0,34.0,30.09,NE,44,0.0,4.0,76,0.00,,,0.02,Wunderground v.1.15,2013-01-17 21:55:00,
2013-01-17 17:05:00,41.0,34.0,30.09,NE,44,0.0,4.0,76,0.00,,,0.02,Wunderground v.1.15,2013-01-17 22:05:00,
2013-01-17 17:10:00,40.9,33.9,30.09,NE,44,0.0,4.0,76,0.00,,,0.02,Wunderground v.1.15,2013-01-17 22:10:00,
2013-01-17 17:15:00,40.9,34.2,30.08,NE,44,0.0,4.0,77,0.00,,,0.02,Wunderground v.1.15,2013-01-17 22:15:00,
2013-01-17 17:20:00,40.9,33.6,30.08,NE,44,0.0,4.0,75,0.00,,,0.02,Wunderground v.1.15,2013-01-17 22:20:00,
2013-01-17 17:25:00,40.7,33.7,30.09,North,360,0.0,4.0,76,0.00,,,0.02,Wunderground v.1.15,2013-01-17 22:25:00,
2013-01-17 17:35:00,40.4,33.4,30.09,NNW,340,0.0,4.0,76,0.00,,,0.02,Wunderground v.1.15,2013-01-17 22:35:00,
2013-01-17 17:40:00,40.4,34.1,30.08,NNW,340,0.0,4.0,78,0.00,,,0.02,Wunderground v.1.15,2013-01-17 22:40:00,
2013-01-17 17:45:00,40.4,34.1,30.09,NNW,340,0.0,4.0,78,0.00,,,0.02,Wunderground v.1.15,2013-01-17 22:45:00,
2013-01-17 17:50:00,40.3,33.7,30.10,NNW,340,0.0,4.0,77,0.00,,,0.02,Wunderground v.1.15,2013-01-17 22:50:00,
2013-01-17 17:55:00,40.2,33.6,30.11,NW,307,0.0,4.0,77,0.00,,,0.02,Wunderground v.1.15,2013-01-17 22:55:00,
2013-01-17 18:05:00,40.0,33.7,30.11,NW,307,2.0,4.0,78,0.00,,,0.02,Wunderground v.1.15,2013-01-17 23:05:00,
2013-01-17 18:10:00,39.9,33.6,30.11,NW,307,1.0,1.0,78,0.00,,,0.02,Wunderground v.1.15,2013-01-17 23:10:00,
2013-01-17 18:15:00,39.9,33.6,30.10,NW,307,1.0,4.0,78,0.00,,,0.02,Wunderground v.1.15,2013-01-17 23:15:00,
2013-01-17 18:25:00,40.2,34.2,30.11,NW,307,0.0,4.0,79,0.00,,,0.02,Wunderground v.1.15,2013-01-17 23:25:00,
2013-01-17 18:30:00,40.0,33.7,30.11,NW,307,0.0,4.0,78,0.00,,,0.02,Wunderground v.1.15,2013-01-17 23:30:00,
2013-01-17 18:35:00,39.8,33.5,30.11,NW,309,1.0,4.0,78,0.00,,,0.02,Wunderground v.1.15,2013-01-17 23:35:00,
2013-01-17 18:40:00,39.7,33.7,30.09,NW,309,1.0,1.0,79,0.00,,,0.02,Wunderground v.1.15,2013-01-17 23:40:00,
2013-01-17 18:45:00,39.7,33.7,30.10,NW,309,0.0,4.0,79,0.00,,,0.02,Wunderground v.1.15,2013-01-17 23:45:00,
2013-01-17 18:55:00,39.6,33.6,30.10,NW,309,0.0,4.0,79,0.00,,,0.02,Wunderground v.1.15,2013-01-17 23:55:00,
2013-01-17 19:00:00,39.4,33.4,30.10,NW,311,1.0,1.0,79,0.00,,,0.02,Wunderground v.1.15,2013-01-18 00:00:00,
2013-01-17 19:05:00,39.4,33.4,30.10,NW,317,1.0,4.0,79,0.00,,,0.02,Wunderground v.1.15,2013-01-18 00:05:00,
2013-01-17 19:10:00,39.2,33.2,30.10,NW,321,2.0,4.0,79,0.00,,,0.02,Wunderground v.1.15,2013-01-18 00:10:00,
2013-01-17 19:15:00,39.2,33.2,30.10,NW,324,2.0,4.0,79,0.00,,,0.02,Wunderground v.1.15,2013-01-18 00:15:00,
2013-01-17 19:25:00,39.1,33.5,30.09,NW,323,1.0,4.0,80,0.00,,,0.02,Wunderground v.1.15,2013-01-18 00:25:00,
2013-01-17 19:30:00,39.1,33.5,30.08,NW,325,0.0,4.0,80,0.00,,,0.02,Wunderground v.1.15,2013-01-18 00:30:00,
2013-01-17 19:35:00,38.9,33.3,30.08,NNW,336,1.0,4.0,80,0.00,,,0.02,Wunderground v.1.15,2013-01-18 00:35:00,
2013-01-17 19:40:00,38.9,33.6,30.08,NNW,336,0.0,4.0,81,0.00,,,0.02,Wunderground v.1.15,2013-01-18 00:40:00,
2013-01-17 19:45:00,39.0,33.7,30.07,NNW,336,0.0,4.0,81,0.00,,,0.02,Wunderground v.1.15,2013-01-18 00:45:00,
2013-01-17 19:55:00,38.9,34.2,30.06,NNW,336,0.0,4.0,83,0.00,,,0.02,Wunderground v.1.15,2013-01-18 00:55:00,
2013-01-17 20:00:00,39.0,34.0,30.07,NNW,336,0.0,4.0,82,0.00,,,0.02,Wunderground v.1.15,2013-01-18 01:00:00,
2013-01-17 20:05:00,38.9,33.6,30.07,NNW,336,0.0,4.0,81,0.00,,,0.02,Wunderground v.1.15,2013-01-18 01:05:00,
2013-01-17 20:10:00,38.8,33.5,30.08,NW,314,1.0,1.0,81,0.00,,,0.02,Wunderground v.1.15,2013-01-18 01:10:00,
2013-01-17 20:15:00,38.8,33.5,30.08,NW,306,1.0,3.0,81,0.00,,,0.02,Wunderground v.1.15,2013-01-18 01:15:00,
2013-01-17 20:25:00,38.6,33.3,30.08,NW,311,1.0,4.0,81,0.00,,,0.02,Wunderground v.1.15,2013-01-18 01:25:00,
2013-01-17 20:30:00,38.7,33.4,30.06,NW,310,0.0,4.0,81,0.00,,,0.02,Wunderground v.1.15,2013-01-18 01:30:00,
2013-01-17 20:35:00,38.8,34.1,30.06,NW,310,0.0,4.0,83,0.00,,,0.02,Wunderground v.1.15,2013-01-18 01:35:00,
2013-01-17 20:45:00,38.6,33.3,30.08,NW,310,0.0,4.0,81,0.00,,,0.02,Wunderground v.1.15,2013-01-18 01:45:00,
2013-01-17 20:50:00,38.5,33.2,30.07,NW,310,0.0,4.0,81,0.00,,,0.02,Wunderground v.1.15,2013-01-18 01:50:00,
2013-01-17 20:55:00,38.6,33.3,30.08,NW,310,0.0,4.0,81,0.00,,,0.02,Wunderground v.1.15,2013-01-18 01:55:00,
2013-01-17 21:00:00,38.5,33.2,30.06,NW,311,1.0,1.0,81,0.00,,,0.02,Wunderground v.1.15,2013-01-18 02:00:00,
2013-01-17 21:05:00,38.5,33.2,30.07,NW,311,1.0,4.0,81,0.00,,,0.02,Wunderground v.1.15,2013-01-18 02:05:00,
2013-01-17 21:15:00,38.3,33.0,30.07,NW,311,1.0,4.0,81,0.00,,,0.02,Wunderground v.1.15,2013-01-18 02:15:00,
2013-01-17 21:20:00,38.3,33.0,30.07,NW,311,0.0,4.0,81,0.00,,,0.02,Wunderground v.1.15,2013-01-18 02:20:00,
2013-01-17 21:25:00,38.2,32.9,30.07,NW,306,0.0,4.0,81,0.00,,,0.02,Wunderground v.1.15,2013-01-18 02:25:00,
2013-01-17 21:30:00,38.2,32.9,30.06,NW,311,1.0,1.0,81,0.00,,,0.02,Wunderground v.1.15,2013-01-18 02:30:00,
2013-01-17 21:40:00,38.1,32.8,30.06,NW,311,1.0,1.0,81,0.00,,,0.02,Wunderground v.1.15,2013-01-18 02:40:00,
2013-01-17 21:45:00,38.1,32.8,30.05,NW,310,1.0,5.0,81,0.00,,,0.02,Wunderground v.1.15,2013-01-18 02:45:00,
2013-01-17 21:50:00,38.1,32.8,30.05,NW,318,1.0,1.0,81,0.00,,,0.02,Wunderground v.1.15,2013-01-18 02:50:00,
2013-01-17 21:55:00,38.0,32.7,30.06,NW,307,1.0,4.0,81,0.00,,,0.02,Wunderground v.1.15,2013-01-18 02:55:00,
2013-01-17 22:05:00,38.0,32.7,30.06,NW,322,1.0,4.0,81,0.00,,,0.02,Wunderground v.1.15,2013-01-18 03:05:00,
2013-01-17 22:10:00,38.0,32.7,30.07,NW,322,1.0,4.0,81,0.00,,,0.02,Wunderground v.1.15,2013-01-18 03:10:00,
2013-01-17 22:15:00,38.0,32.4,30.08,West,276,1.0,4.0,80,0.00,,,0.02,Wunderground v.1.15,2013-01-18 03:15:00,
2013-01-17 22:20:00,38.0,32.4,30.07,West,276,1.0,1.0,80,0.00,,,0.02,Wunderground v.1.15,2013-01-18 03:20:00,
2013-01-17 22:30:00,37.9,32.6,30.07,NE,50,0.0,4.0,81,0.00,,,0.02,Wunderground v.1.15,2013-01-18 03:30:00,
2013-01-17 22:35:00,37.9,32.3,30.08,NNE,24,0.0,4.0,80,0.00,,,0.02,Wunderground v.1.15,2013-01-18 03:35:00,
2013-01-17 22:40:00,37.9,32.6,30.07,NNE,24,0.0,4.0,81,0.00,,,0.02,Wunderground v.1.15,2013-01-18 03:40:00,
2013-01-17 22:45:00,38.0,32.4,30.08,NNE,24,0.0,4.0,80,0.00,,,0.02,Wunderground v.1.15,2013-01-18 03:45:00,
2013-01-17 22:50:00,37.9,32.6,30.06,NNE,24,0.0,4.0,81,0.00,,,0.02,Wunderground v.1.15,2013-01-18 03:50:00,
2013-01-17 23:00:00,37.9,32.3,30.06,NNW,346,0.0,4.0,80,0.00,,,0.02,Wunderground v.1.15,2013-01-18 04:00:00,
2013-01-17 23:05:00,37.9,32.3,30.07,NW,307,0.0,4.0,80,0.00,,,0.02,Wunderground v.1.15,2013-01-18 04:05:00,
2013-01-17 23:10:00,37.9,32.3,30.07,NW,318,0.0,4.0,80,0.00,,,0.02,Wunderground v.1.15,2013-01-18 04:10:00,
2013-01-17 23:15:00,37.9,32.3,30.08,NW,309,1.0,4.0,80,0.00,,,0.02,Wunderground v.1.15,2013-01-18 04:15:00,
2013-01-17 23:25:00,37.8,32.2,30.05,NW,305,1.0,4.0,80,0.00,,,0.02,Wunderground v.1.15,2013-01-18 04:25:00,
2013-01-17 23:30:00,37.8,32.2,30.04,NW,317,1.0,1.0,80,0.00,,,0.02,Wunderground v.1.15,2013-01-18 04:30:00,
2013-01-17 23:35:00,37.8,32.2,30.06,NW,318,1.0,4.0,80,0.00,,,0.02,Wunderground v.1.15,2013-01-18 04:35:00,
2013-01-17 23:45:00,37.7,32.1,30.05,NW,304,1.0,4.0,80,0.00,,,0.02,Wunderground v.1.15,2013-01-18 04:45:00,
2013-01-17 23:50:00,37.7,32.1,30.04,NW,317,1.0,4.0,80,0.00,,,0.02,Wunderground v.1.15,2013-01-18 04:50:00,
2013-01-17 23:55:00,37.7,32.1,30.05,NW,317,1.0,4.0,80,0.00,,,0.02,Wunderground v.1.15,2013-01-18 04:55:00,